User: anonymous   Login
Location: Caltech
(34.1382°N, 118.1253°W)
Time: 13:07:38
(UTC-07:00)
Language:

Gbstr 26 Del rocket - Orbit

View from above orbital plane
View from above orbital plane
View from above satellite
View from above satellite

Ground track
Ground track

The orbit data is extracted from the following two-line orbital elements,

1 25876U 99041E   17265.64190557 +.00000048 +00000-0 +48301-4 0  9991
2 25876 051.7667 292.3806 0530993 312.1000 043.5915 14.04096575928296
Epoch (UTC): 22 September 2017 15:24:20
Eccentricity: 0.0530993
inclination: 51.7667°
perigee height: 494 km
apogee height: 1265 km
right ascension of ascending node: 292.3806°
argument of perigee: 312.1000°
revolutions per day: 14.04096575
mean anomaly at epoch: 43.5915°
orbit number at epoch: 92829

The dashed part of the orbit path shows where the satellite is in the earth's shadow,  

DLR